Palmdale, CA

1:18 AM PDT on June 18, 2018 (GMT -0700)
Palmdale Af Plant 42

Weather History for KPMD - October, 2017

Change the Weather History Date:

Wednesday, October 11, 2017

  Actual Average Record
Temperature  
Mean Temperature 64 °F 65 °F  
Max Temperature 83 °F 80 °F 96 °F (1959)
Min Temperature 45 °F 50 °F 34 °F (1973)
Degree Days  
Heating Degree Days 1 2  
Month to date heating degree days 22 19  
Since 1 July heating degree days 41 31  
Cooling Degree Days 0 2  
Month to date cooling degree days 19 38  
Year to date cooling degree days 2219 1795  
Growing Degree Days 14 (Base 50)    
Moisture  
Dew Point 29 °F    
Average Humidity 29    
Maximum Humidity 46    
Minimum Humidity 11    
Precipitation  
Precipitation 0.00 in 0.01 in 0.75 in (1957)
Month to date precipitation 0.00 0.14  
Year to date precipitation 4.56 5.99  
Snow  
Snow 0.00 in - 0.00 in (1973)
Month to date snowfall 0.0  
Since 1 July snowfall 0.0  
Since 1 September snowfall 0.0  
Snow Depth 0.00 in    
Sea Level Pressure  
Sea Level Pressure 29.87 in    
Wind  
Wind Speed 10 mph (West)    
Max Wind Speed 24 mph    
Max Gust Speed 36 mph    
Visibility 10 miles    
Events      
T = Trace of Precipitation, MM = Missing Value Source: NWS Daily Summary

Daily Weather History Graph

Daily Weather History Graph

Search for Another Location

Airport or City:

Astronomy

Oct. 11, 2017 Rise Set
Actual Time 6:54 AM PDT 6:22 PM PDT
Civil Twilight 6:29 AM PDT 6:47 PM PDT
Nautical Twilight 6:00 AM PDT 7:16 PM PDT
Astronomical Twilight 5:31 AM PDT 7:45 PM PDT
Moon 11:39 PM PDT (10/11) 1:06 PM PDT (10/11)
Length of Visible Light 12h 17m
Length of Day
11h 27m
Waning Gibbous, 58% of the Moon is Illuminated
Oct 11
Waning Gibbous
Oct 12
Last Quarter
Oct 19
New
Oct 27
First Quarter
Nov 3
Full

Hourly Weather History & Observations

Time (PDT) Temp. Dew Point Humidity Pressure Visibility Wind Dir Wind Speed Gust Speed Precip Events Conditions
12:53 AM 51.1 °F 24.1 °F 35% 29.91 in 10.0 mi South 4.6 mph - N/A   Clear
1:53 AM 51.1 °F 24.1 °F 35% 29.90 in 10.0 mi SSW 4.6 mph - N/A   Clear
2:53 AM 50.0 °F 27.0 °F 41% 29.89 in 10.0 mi South 8.1 mph - N/A   Clear
3:53 AM 50.0 °F 27.0 °F 41% 29.87 in 10.0 mi SSW 9.2 mph - N/A   Clear
4:53 AM 46.9 °F 27.0 °F 46% 29.87 in 10.0 mi Calm Calm - N/A   Clear
5:53 AM 46.9 °F 27.0 °F 46% 29.88 in 10.0 mi Calm Calm - N/A   Clear
6:53 AM 48.9 °F 25.0 °F 39% 29.89 in 10.0 mi Calm Calm - N/A   Clear
7:53 AM 48.0 °F 23.0 °F 37% 29.91 in 10.0 mi WNW 4.6 mph - N/A   Clear
8:53 AM 57.9 °F 23.0 °F 26% 29.92 in 10.0 mi Calm Calm - N/A   Clear
9:53 AM 64.9 °F 25.0 °F 22% 29.92 in 10.0 mi ENE 4.6 mph - N/A   Clear
10:53 AM 72.0 °F 27.0 °F 19% 29.90 in 10.0 mi NE 4.6 mph - N/A   Clear
11:53 AM 75.9 °F 21.9 °F 13% 29.88 in 10.0 mi NNW 4.6 mph - N/A   Clear
12:53 PM 79.0 °F 21.9 °F 12% 29.86 in 10.0 mi North - - N/A   Clear
1:53 PM 82.0 °F 23.0 °F 11% 29.82 in 10.0 mi WSW 20.7 mph 26.5 mph N/A   Clear
2:53 PM 81.0 °F 25.0 °F 13% 29.82 in 10.0 mi SW 21.9 mph 29.9 mph N/A   Clear
3:53 PM 81.0 °F 30.9 °F 16% 29.82 in 10.0 mi SW 20.7 mph 28.8 mph N/A   Clear
4:53 PM 79.0 °F 32.0 °F 18% 29.82 in 10.0 mi SW 17.3 mph 31.1 mph N/A   Clear
5:53 PM 75.0 °F 30.9 °F 20% 29.83 in 10.0 mi WSW 15.0 mph 27.6 mph N/A   Clear
6:53 PM 70.0 °F 34.0 °F 27% 29.85 in 10.0 mi WNW 15.0 mph 23.0 mph N/A   Clear
7:53 PM 66.9 °F 39.0 °F 36% 29.88 in 10.0 mi WNW 12.7 mph 26.5 mph N/A   Clear
8:53 PM 64.9 °F 37.9 °F 37% 29.88 in 10.0 mi WNW 12.7 mph 21.9 mph N/A   Clear
9:53 PM 64.0 °F 35.1 °F 34% 29.89 in 10.0 mi WNW 12.7 mph 29.9 mph N/A   Clear
10:53 PM 63.0 °F 37.0 °F 38% 29.89 in 9.0 mi WNW 13.8 mph 26.5 mph N/A   Clear
11:53 PM 61.0 °F 39.0 °F 44% 29.89 in 6.0 mi WNW 19.6 mph 29.9 mph N/A   Haze